Location: Akp?nar Deresi
(36.5333°N, 30.2667°E)
Time: 14:20:22
(UTC+00:00)

Daily predictions for brighter satellites

Satellite Brightness Start Highest point End
(mag) Time Altitude Azimuth Time Altitude Azimuth Time Altitude Azimuth
Cosmos 1697 Rocket 3.5 17:27:40 10° N 17:32:52 36° ENE 17:38:02 10° SE
Ariane Rocket 4.1 17:29:20 10° SE 17:33:34 27° ENE 17:37:47 10° NNE
Cosmos 1437 Rocket 2.9 17:31:40 10° N 17:35:28 57° E 17:39:21 10° SSE
USA 305 3.8 17:32:18 10° WNW 17:36:18 43° SW 17:40:15 10° SSE
Okean-O 3.8 17:33:10 10° S 17:37:24 45° W 17:41:40 10° NNW
Cosmos 1833 Rocket 2.8 17:32:05 10° SSW 17:37:43 85° WNW 17:43:24 10° NNE
USA 308 3.7 17:34:17 10° WNW 17:38:22 47° SW 17:42:26 10° SSE
H-2A R/B 3.2 17:25:41 10° WSW 17:38:31 34° SSW 17:41:44 10° ESE
SJ-6B 2.9 17:37:19 10° SSE 17:40:57 54° ENE 17:44:36 10° N
Cosmos 2082 Rocket 2.4 17:36:42 10° S 17:42:03 48° ESE 17:47:27 10° NNE
Cosmos 783 Rocket 4.5 17:37:24 10° S 17:42:30 64° ESE 17:47:39 10° NNE
Cosmos 1825 Rocket 4.5 17:39:44 10° SSW 17:43:57 52° W 17:48:11 10° N
Cosmos 44 Rocket 3.6 17:39:03 10° SSW 17:44:12 82° WNW 17:49:28 10° NNE
ATLAS 2AS CENTAUR R/B 3.2 17:40:14 10° SSW 17:48:08 83° WNW 17:56:01 10° NNE
Cosmos 1634 Rocket 4.0 17:43:12 10° N 17:49:29 86° E 17:55:42 10° S
Meteor 2-13 Rocket 4.5 17:45:16 10° S 17:51:17 66° E 17:57:20 10° NNE
SAR-Lupe-1 4.2 17:55:45 10° N 17:59:21 79° WNW 18:02:54 10° SSW
CENTAUR R/B 4.1 17:51:47 10° NW 17:59:55 51° WSW 18:08:25 10° S
SAR-Lupe-4 3.5 17:56:46 10° NNE 18:00:22 89° WSW 18:03:55 10° SSW
Cosmos 1656 4.1 17:55:06 10° NNW 18:00:40 64° WSW 18:06:06 10° S
Resurs 01 Rocket 2.7 17:57:20 12° SE 18:00:42 29° ENE 18:04:32 10° N
Meteor 2-2 Rocket 4.3 17:55:07 10° N 18:00:52 63° E 18:06:28 10° SSE
Cosmos 773 Rocket 3.9 17:56:23 10° SSW 18:01:35 79° ESE 18:06:47 10° NNE
ATLAS 3B R/B 3.9 17:55:51 10° NNW 18:02:00 30° NE 18:07:52 12° ESE
Cosmos 2221 3.0 17:58:47 10° N 18:02:55 43° E 18:06:35 12° SSE
Cosmos 1689 Rocket 4.1 18:00:55 10° N 18:03:22 29° WNW 18:05:48 10° SW
Cosmos 2058 2.9 17:59:19 10° S 18:03:28 89° ESE 18:07:41 10° N
USA 267 4.4 18:05:21 10° E 18:09:26 17° ESE 18:13:31 10° SSE
IRS-1A Rocket 4.2 18:04:52 10° SSE 18:10:22 69° ENE 18:15:50 10° N
OAO 1 Rocket 4.4 18:06:38 10° W 18:11:59 77° S 18:16:37 14° E
USA 186 3.7 18:09:29 10° SSW 18:12:16 27° W 18:14:54 10° NW
OAO 2 Rocket 3.7 18:08:31 10° W 18:13:25 49° SSW 18:16:48 19° SE
Cosmos 1606 3.3 18:10:19 10° N 18:13:51 37° E 18:16:00 20° SE
RESURS DK-1 2.5 18:09:53 10° SSW 18:14:01 79° WNW 18:18:11 10° NNE
Cosmos 1633 2.7 18:12:34 10° S 18:15:59 50° E 18:19:30 10° NNE
MOS 1 4.3 18:11:01 10° SSE 18:16:41 81° ENE 18:22:21 10° NNW
Cosmos 2151 3.9 18:16:11 19° SE 18:18:11 28° E 18:21:49 10° NNE
OBJECT-B 2.7 18:15:28 10° SSW 18:18:18 29° W 18:21:09 10° NW
Cosmos 2369 3.8 18:12:55 10° NNW 18:18:32 61° ENE 18:22:41 18° SE
Cosmos 1980 Rocket 2.7 18:15:21 10° N 18:20:45 45° ENE 18:24:20 20° SE
Cosmos 1825 4.2 18:18:20 10° SW 18:21:39 30° WNW 18:24:58 10° NNW
SPOT 3 Rocket 4.0 18:23:36 20° SE 18:26:59 47° ENE 18:31:58 10° N
Cosmos 158 Rocket 4.2 18:22:30 10° S 18:27:18 45° ESE 18:32:15 10° NNE
ARIANE 5 R/B 4.5 18:26:05 14° E 18:27:21 16° ENE 18:30:01 10° NNE
Hubble Space Telescope 2.1 18:24:38 10° WSW 18:28:01 24° S 18:29:09 22° SSE
Cosmos 2322 Rocket 4.3 18:28:11 10° NNE 18:30:08 12° NE 18:32:04 10° ENE
Cosmos 1437 4.1 18:30:20 10° NNW 18:32:49 30° W 18:35:02 12° SSW
Cosmos 1242 Rocket 4.1 18:29:40 10° NNW 18:32:55 33° W 18:36:07 10° SSW
Meteor 2-3 Rocket 4.2 18:30:41 20° SSE 18:33:56 39° E 18:39:10 10° NNE
Cosmos 1092 Rocket 4.2 18:39:25 20° SSE 18:43:31 50° E 18:49:34 10° NNE
Cosmos 1076 Rocket 3.8 18:42:51 10° SSW 18:47:09 68° W 18:51:29 10° N
ATLAS 2A CENTAUR R/B 4.2 18:30:42 10° WSW 18:48:10 42° SSW 18:50:40 29° SE
Landsat 7 3.8 18:48:47 26° S 18:51:32 85° W 18:56:19 10° NNW
Meteor 2-19 Rocket 4.3 18:47:32 16° S 18:52:22 71° E 18:58:23 10° NNE
Cosmos 1538 Rocket 4.3 18:48:48 10° SSW 18:54:00 69° WNW 18:59:11 10° NNE
ISS -1.5 18:52:16 10° NNW 18:54:39 18° NNE 18:55:42 15° NE
ERS-2 4.1 18:52:06 10° N 18:55:16 29° WNW 18:58:26 10° SW
Cosmos 2026 Rocket 4.2 18:54:46 28° SSE 18:57:56 53° E 19:04:02 10° NNE
SL-16 R/B 3.5 18:53:45 10° N 18:58:26 26° ENE 19:00:08 22° E
Cosmos 2098 Rocket 3.6 18:58:08 19° SW 18:59:52 36° W 19:02:55 10° N
Atlas Centaur 2 2.2 18:57:04 10° WSW 19:00:11 31° SSW 19:00:11 31° SSW
Cosmos 1782 4.2 18:57:37 10° NNE 19:00:36 25° ENE 19:00:36 25° ENE
Nadezhda 4 Rocket 4.4 18:59:11 10° SSW 19:05:14 61° W 19:11:23 10° N
ERBS 3.3 19:07:42 10° WNW 19:10:31 36° WSW 19:10:31 36° WSW
Cosmos 1627 Rocket 4.4 19:07:50 29° S 19:11:15 72° E 19:17:32 10° N
Cosmos 1271 Rocket 3.1 19:11:16 10° N 19:14:54 50° ENE 19:14:54 50° ENE
CZ-2C R/B 4.0 19:11:23 10° N 19:15:51 63° WNW 19:18:30 23° SSW
OAO 3 Copernicus 4.2 19:10:57 10° W 19:15:55 65° S 19:16:39 57° SSE
SEDSat Delta rocket 3.9 19:12:30 10° WSW 19:15:16 31° SW 19:15:16 31° SW
Cosmos 1697 Rocket 4.3 19:11:54 10° NW 19:16:38 28° WSW 19:20:36 13° SSW
GP-B 3.0 19:12:20 10° N 19:16:45 65° E 19:17:03 63° ESE
SPOT 1/Viking Rocket 3.8 19:21:51 38° S 19:23:46 66° WSW 19:28:57 10° NNW
Cosmos 304 Rocket 3.6 19:21:24 10° NNW 19:26:11 69° ENE 19:26:33 65° ESE
Okean 3 Rocket 3.8 19:27:22 54° ENE 19:27:22 54° ENE 19:31:20 10° NNE
Cosmos 1428 Rocket 4.4 19:24:54 32° S 19:27:59 86° W 19:34:08 10° N
USA 245 4.2 19:29:43 43° SSW 19:31:21 66° WSW 19:35:59 10° NNW
Cosmos 2278 4.2 19:28:35 10° NNW 19:34:03 52° WSW 19:35:49 38° SSW
Resurs 01 Rocket 3.7 19:34:54 15° SW 19:37:09 22° W 19:40:36 10° NW
Cosmos 923 Rocket 4.4 19:37:25 25° SW 19:40:28 62° WNW 19:45:46 10° N
Cosmos 2360 Rocket 3.5 19:38:40 10° N 19:43:22 26° ENE 19:43:51 26° ENE
Meteor 2-14 Rocket 4.3 19:43:34 61° SE 19:44:24 68° E 19:50:31 10° NNE
Cosmos 1553 Rocket 4.0 19:39:21 10° N 19:45:20 57° E 19:45:50 56° ESE
Meteor 1-26 Rocket 4.4 19:41:02 10° NNW 19:46:57 73° W 19:48:11 55° SSW
Cosmos 2333 Rocket 4.2 19:46:44 10° NNE 19:49:51 15° NE 19:50:48 14° ENE
CARTOSAT-1 4.3 19:52:49 45° W 19:52:49 45° W 19:56:57 10° NNW
USA 267 3.1 19:46:23 10° NE 19:52:58 82° SE 19:59:31 10° SW
ATLAS 3B R/B 3.1 19:46:01 10° NW 19:53:05 59° WSW 19:55:07 45° SSW
Cosmos 2056 Rocket 4.2 19:52:35 10° N 19:57:17 42° NE 19:57:17 42° NE
Cosmos 1655 Rocket 4.2 19:58:58 55° E 19:58:58 55° E 20:05:08 10° NNE
ERS-1 Rocket 3.1 20:00:39 66° WSW 20:00:41 66° WSW 20:05:42 10° NNW
SPOT 5 3.2 20:02:24 52° WNW 20:02:24 52° WNW 20:06:04 10° NNW
ARIANE 5 R/B 3.5 20:03:39 44° W 20:03:39 44° W 20:07:41 10° NNW
Cosmos 1812 4.3 20:00:03 10° N 20:02:13 32° N 20:02:13 32° N
Terra 2.0 20:04:38 68° NNW 20:04:38 68° NNW 20:08:49 10° NNW
Cosmos 1980 Rocket 4.0 20:00:12 10° NW 20:04:22 21° W 20:06:07 19° SW
Cosmos 1417 Rocket 4.3 20:06:08 10° N 20:12:28 80° E 20:12:39 79° ESE
Cosmos 2322 Rocket 2.2 20:09:22 10° NNW 20:14:40 78° N 20:14:40 78° N
S3M 4.0 20:08:39 10° N 20:15:02 67° E 20:15:03 67° E
Cosmos 1371 Rocket 4.3 20:13:42 10° NNW 20:18:22 65° N 20:18:22 65° N
COSMOS 2455 3.7 20:22:49 37° ENE 20:22:49 37° ENE 20:26:36 10° NE
ISS -0.5 20:28:23 10° NW 20:28:39 12° WNW 20:28:39 12° WNW
Cosmos 2219 Rocket 3.6 20:33:12 10° N 20:37:30 28° NE 20:37:30 28° NE
SL-16 R/B 3.1 20:37:22 10° NW 20:42:00 39° W 20:42:00 39° W
COSMOS 2428 4.1 20:43:17 10° N 20:47:41 28° NE 20:47:41 28° NE
ATLAS 5 CENTAUR R/B 4.0 21:03:01 10° N 21:07:41 25° NE 21:08:31 24° ENE
Meteor 1-27 Rocket 4.4 21:03:41 10° NNW 21:08:00 52° NW 21:08:00 52° NW
NOSS 3-1 (C) 4.2 21:02:42 10° NNW 21:10:29 67° NE 21:11:25 62° E
Cosmos 2285 Rocket 4.4 21:14:47 10° NNW 21:19:57 59° N 21:19:57 59° N
USA 229 DEB 4.4 21:16:43 10° NNW 21:23:54 50° NE 21:24:45 48° ENE
USA 229 4.4 21:16:49 10° NNW 21:24:00 49° NE 21:24:52 47° ENE
Cosmos 2315 Rocket 4.5 21:19:13 10° NNW 21:24:28 56° NW 21:24:28 56° NW
Cosmos 2360 Rocket 3.6 21:22:14 10° NW 21:25:36 31° WNW 21:25:36 31° WNW
Cosmos 2333 Rocket 3.2 21:29:05 10° NNW 21:32:47 42° NNW 21:32:47 42° NNW
NOSS 3-1 (A) 4.2 21:36:46 10° NNW 21:44:33 67° NE 21:45:18 64° E
Cosmos 2297 Rocket 3.7 21:50:21 30° NE 21:50:21 30° NE 21:53:17 10° NNE
Cosmos 2237 Rocket 3.5 21:52:57 10° N 21:57:11 35° NE 21:57:11 35° NE
Cosmos 2227 Rocket 3.7 22:01:49 29° NE 22:01:49 29° NE 22:04:44 10° NNE
USA 234 3.5 22:07:28 64° NNW 22:07:28 64° NNW 22:12:54 10° NW
Nadezhda 1 Rocket 4.5 22:14:58 10° N 22:19:59 57° NNW 22:19:59 57° NNW
Cosmos 2219 Rocket 4.0 22:16:55 10° NW 22:19:12 22° NW 22:19:12 22° NW
SL-16 R/B 4.1 22:20:14 10° N 22:24:32 22° ENE 22:25:24 21° ENE
Lacrosse 5 3.5 22:34:25 31° NNE 22:34:25 31° NNE 22:37:15 10° NNE
COSMOS 2428 4.5 22:27:17 10° NW 22:29:40 23° NW 22:29:40 23° NW
SL-16 R/B 4.4 22:34:57 19° E 22:36:53 22° ENE 22:41:24 10° NNE
Resurs 1-4 Rocket 4.0 22:36:21 10° NE 22:39:09 22° ENE 22:39:09 22° ENE
Cosmos 2219 4.1 22:53:57 43° NNW 22:53:57 43° NNW 22:58:16 10° NNE
ATLAS 5 CENTAUR R/B 3.5 22:46:45 10° NW 22:49:59 35° NW 22:49:59 35° NW
Cosmos 2181 Rocket 4.2 22:58:03 10° N 23:03:32 66° NNE 23:03:32 66° NNE
Cosmos 2082 4.3 23:11:35 55° NNE 23:11:35 55° NNE 23:16:01 10° NNE
ADEOS II 3.9 23:09:23 10° NE 23:13:01 22° E 23:13:01 22° E
NPP 4.5 23:17:29 10° NNE 23:21:49 45° ENE 23:21:49 45° ENE
NOSS 3-3 (A) 4.3 23:28:53 52° E 23:28:53 52° E 23:34:02 10° NE
NOSS 3-3 (C) 4.3 23:29:00 51° E 23:29:00 51° E 23:34:07 10° NE
CZ-2D R/B 2.5 23:26:09 10° NNE 23:30:40 61° NE 23:30:40 61° NE
Cosmos 2297 Rocket 4.0 23:32:09 21° NW 23:32:09 21° NW 23:36:19 10° N
Cosmos 1140 Rocket 4.3 23:35:42 46° ENE 23:35:42 46° ENE 23:39:54 10° NNE
CZ-4C R/B 3.9 23:32:57 10° NNW 23:40:05 46° NE 23:48:09 10° ESE
Cosmos 2251 Rocket 4.4 23:41:23 43° NNW 23:41:23 43° NNW 23:45:26 10° N
Cosmos 2237 Rocket 4.2 23:37:22 10° NW 23:38:58 17° WNW 23:38:58 17° WNW
Cosmos 2227 Rocket 3.9 23:43:38 22° WNW 23:43:38 22° WNW 23:47:56 10° N
